Weather History for Dallas Addison, TX

Change the Weather History Date:

Wednesday, February 20, 2013

  Actual Average Record
Temperature  
Mean Temperature 46 °F -  
Max Temperature 51 °F 59 °F 84 °F (2005)
Min Temperature 41 °F 42 °F 30 °F (2006)
Degree Days  
Heating Degree Days 19    
Moisture  
Dew Point 34 °F    
Average Humidity 68    
Maximum Humidity 81    
Minimum Humidity 41    
Precipitation  
Precipitation 0.05 in - - ()
Sea Level Pressure  
Sea Level Pressure 30.03 in    
Wind  
Wind Speed 10 mph (East)    
Max Wind Speed 18 mph    
Max Gust Speed 28 mph    
Visibility 11 miles    
Events Rain    
Averages and records for this station are not official NWS values.
T = Trace of Precipitation, MM = Missing Value Source: NWS Daily Summary

Daily Weather History Graph

Daily Weather History Graph

Search for Another Location

Airport:

Trip Planner

Search our weather history database for the weather conditions in past years. The results will help you decide how hot, cold, wet, or windy it might be!

Date:

Astronomy

Feb. 20, 2013 Rise Set
Actual Time 7:05 AM CST 6:17 PM CST
Civil Twilight 6:40 AM CST 6:42 PM CST
Nautical Twilight 6:11 AM CST 7:11 PM CST
Astronomical Twilight 5:42 AM CST 7:39 PM CST
Moon 1:48 PM CST (2/20) 3:17 AM CST (2/20)
Length of Visible Light 12h 02m
Length of Day
11h 12m
Waxing Gibbous, 76% of the Moon is Illuminated
Feb 20
Waxing Gibbous
Feb 25
Full
Mar 4
Last Quarter
Mar 11
New
Mar 19
First Quarter

Hourly Weather History & Observations

Time (CST) Temp. Windchill Dew Point Humidity Pressure Visibility Wind Dir Wind Speed Gust Speed Precip Events Conditions
12:15 AM 51.8 °F - 28.4 °F 41% 30.17 in 10.0 mi ESE 9.2 mph - N/A   Overcast
12:35 AM 51.8 °F - 28.4 °F 41% 30.17 in 10.0 mi East 9.2 mph - N/A Rain Light Rain
12:55 AM 51.8 °F - 30.2 °F 44% 30.18 in 10.0 mi East 5.8 mph - N/A Rain Light Rain
1:15 AM 50.0 °F - 32.0 °F 50% 30.17 in 10.0 mi East 5.8 mph - N/A Rain Light Rain
1:35 AM 50.0 °F - 32.0 °F 50% 30.17 in 10.0 mi East 8.1 mph - N/A Rain Rain
1:55 AM 50.0 °F - 33.8 °F 54% 30.17 in 10.0 mi East 4.6 mph - N/A Rain Light Rain
2:15 AM 46.4 °F 44.3 °F 35.6 °F 66% 30.16 in 10.0 mi ENE 4.6 mph - 0.01 in Rain Rain
2:35 AM 46.4 °F 42.9 °F 35.6 °F 66% 30.15 in 10.0 mi ENE 6.9 mph - 0.04 in Rain Light Rain
2:55 AM 46.4 °F 43.5 °F 35.6 °F 66% 30.14 in 10.0 mi ENE 5.8 mph - 0.04 in Rain Light Rain
3:15 AM 46.4 °F 42.4 °F 35.6 °F 66% 30.14 in 10.0 mi ENE 8.1 mph - 0.01 in Rain Light Rain
3:35 AM 46.4 °F 43.5 °F 35.6 °F 66% 30.14 in 10.0 mi NE 5.8 mph - 0.01 in Rain Light Rain
3:55 AM 46.4 °F 44.3 °F 35.6 °F 66% 30.18 in 10.0 mi NE 4.6 mph - 0.01 in   Light Drizzle
4:15 AM 46.4 °F 44.3 °F 37.4 °F 71% 30.16 in 10.0 mi ENE 4.6 mph - N/A   Overcast
4:35 AM 46.4 °F 41.9 °F 35.6 °F 66% 30.14 in 10.0 mi East 9.2 mph - N/A   Light Drizzle
4:55 AM 44.6 °F 37.8 °F 35.6 °F 71% 30.11 in 10.0 mi ENE 15.0 mph 20.7 mph N/A   Light Drizzle
5:53 AM 44.6 °F 41.4 °F 35.6 °F 71% 30.14 in 13.0 mi East 5.8 mph 18.4 mph N/A Rain Light Rain
6:47 AM 42.8 °F 36.2 °F 35.6 °F 76% 30.09 in 15.0 mi East 12.7 mph 24.2 mph N/A Rain Light Rain
7:47 AM 42.8 °F 37.0 °F 35.6 °F 76% 30.15 in 13.0 mi NE 10.4 mph - N/A   Overcast
8:47 AM 42.8 °F 36.6 °F 37.4 °F 81% 30.16 in 13.0 mi NE 11.5 mph 19.6 mph N/A   Overcast
9:47 AM 42.8 °F 35.8 °F 37.4 °F 81% 30.12 in 13.0 mi East 13.8 mph 24.2 mph N/A   Mostly Cloudy
11:47 AM 42.8 °F 34.5 °F 37.4 °F 81% 30.07 in 13.0 mi East 18.4 mph 24.2 mph N/A Rain Light Rain
12:47 PM 42.8 °F 35.1 °F 35.6 °F 76% 30.05 in 13.0 mi East 16.1 mph 25.3 mph N/A   Overcast
1:47 PM 44.6 °F 38.1 °F 35.6 °F 71% 30.02 in 13.0 mi East 13.8 mph 21.9 mph N/A   Overcast
2:47 PM 44.6 °F 38.1 °F 33.8 °F 66% 30.01 in 13.0 mi East 13.8 mph 21.9 mph N/A   Overcast
4:47 PM 42.8 °F 35.8 °F 35.6 °F 76% 29.95 in 13.0 mi East 13.8 mph 23.0 mph N/A   Overcast
5:47 PM 41.0 °F 32.8 °F 33.8 °F 76% 29.94 in 13.0 mi East 16.1 mph 25.3 mph N/A   Overcast
6:47 PM 41.0 °F 33.1 °F 33.8 °F 76% 29.94 in 13.0 mi East 15.0 mph 20.7 mph N/A   Overcast
7:47 PM 41.0 °F 32.8 °F 33.8 °F 76% 29.92 in 13.0 mi East 16.1 mph 25.3 mph N/A   Overcast
8:47 PM 41.0 °F 33.1 °F 33.8 °F 76% 29.90 in 13.0 mi East 15.0 mph 27.6 mph N/A   Overcast
9:15 PM 41.0 °F 34.3 °F 32.0 °F 70% 29.87 in 10.0 mi East 11.5 mph 23.0 mph N/A   Overcast
9:35 PM 41.0 °F 33.9 °F 32.0 °F 70% 29.86 in 10.0 mi East 12.7 mph 24.2 mph N/A   Overcast
9:47 PM 41.0 °F 33.1 °F 32.0 °F 70% 29.87 in 13.0 mi East 15.0 mph 27.6 mph N/A   Overcast
9:55 PM 41.0 °F 33.1 °F 32.0 °F 70% 29.85 in 10.0 mi East 15.0 mph 23.0 mph N/A   Overcast
10:15 PM 41.0 °F 32.8 °F 32.0 °F 70% 29.85 in 10.0 mi East 16.1 mph 21.9 mph N/A   Overcast
10:35 PM 41.0 °F 33.1 °F 32.0 °F 70% 29.84 in 10.0 mi East 15.0 mph 21.9 mph N/A   Overcast
10:55 PM 41.0 °F 32.8 °F 32.0 °F 70% 29.83 in 10.0 mi East 16.1 mph 21.9 mph N/A   Overcast
11:15 PM 41.0 °F 32.8 °F 32.0 °F 70% 29.81 in 10.0 mi East 16.1 mph 20.7 mph N/A   Overcast
11:35 PM 41.0 °F 33.1 °F 32.0 °F 70% 29.80 in 10.0 mi East 15.0 mph 23.0 mph N/A   Overcast
11:55 PM 41.0 °F 32.8 °F 32.0 °F 70% 29.79 in 10.0 mi East 16.1 mph 21.9 mph N/A   Overcast